User: anonymous   Login
Location: Lourdes
(43.1000°N, 0.0500°W)
Time: 22:52:14
(UTC+00:00)
Language:

CZ-4 DEB - Orbit

View from above orbital plane
View from above orbital plane
View from above satellite
View from above satellite

Ground track
Ground track

The orbit data is extracted from the following two-line orbital elements,

1 27536U 99057MP  21175.51478278  .00000355  00000-0  10122-3 0  9993
2 27536  98.4233 151.5849 0034684 295.2279 185.9737 14.50895474 19735
Epoch (UTC): 24 June 2021 12:21:17
Eccentricity: 0.0034684
inclination: 98.4233°
perigee height: 698 km
apogee height: 747 km
right ascension of ascending node: 151.5849°
argument of perigee: 295.2279°
revolutions per day: 14.50895474
mean anomaly at epoch: 185.9737°
orbit number at epoch: 1973

The dashed part of the orbit path shows where the satellite is in the earth's shadow,  

DLR